Location: LDNL
(36.4545°S, 141.6685°E)
Time: 11:06:09
(UTC+10:00)

Explorer 7 - Pass Details

Date: 20 August 2022
Orbit: 482 x 668 km, 50.3° (Epoch: 26 September)

Event Time Altitude Azimuth Distance (km) Brightness Sun altitude
Rises 19:40:32 0° 231° (SW) 3,018 11.4 -20.1°
Reaches altitude 10° 19:43:42 10° 210° (SSW) 2,083 10.1 -20.7°
Maximum altitude 19:46:51 17° 169° (S) 1,637 9.1 -21.3°
Enters shadow 19:47:16 17° 163° (SSE) 1,642 9.0 -21.4°
Drops below altitude 10° 19:49:54 10° 128° (SE) 2,019 - -22.0°
Sets 19:52:55 0° 107° (ESE) 2,885 - -22.6°
